Location: Gellin
(53.4498°N, 14.3207°E)
Time: 01:52:49
(UTC+00:00)

Cosmos 1378 Rocket - Pass Details

Date: 03 March 2021
Orbit: 601 x 627 km, 82.5° (Epoch: 11 April)

Event Time Altitude Azimuth Distance (km) Brightness Sun altitude
Rises 19:19:46 0° 351° (N) 2,925 7.4 -23.5°
Reaches altitude 10° 19:22:04 10° 357° (N) 2,015 6.5 -23.8°
Enters shadow 19:25:07 37° 25° (NNE) 978 4.5 -24.2°
